Stations météo

réclame
Mon MeteoGroup
Marina Di Ginosa, Italie (16325): Température de l'air & dewpoint: 10.12.2017 04:00:00 - 16.12.2017 04:00:00 (CET)Marina Di Ginosa, Italie (16325): Vitesse du vent: 10.12.2017 04:00:00 - 16.12.2017 04:00:00 (CET)Marina Di Ginosa, Italie (16325): Direction du vent: 10.12.2017 04:00:00 - 16.12.2017 04:00:00 (CET)Marina Di Ginosa, Italie (16325): reduced air pressure: 10.12.2017 04:00:00 - 16.12.2017 04:00:00 (CET)Marina Di Ginosa, Italie (16325): visibility: 10.12.2017 04:00:00 - 16.12.2017 04:00:00 (CET)
Date & Time tt [°C] td [°C] ff [km/h] ff [knt] dd ppp [hPa] vv [km]
16.12.2017 04:00:00 - - - - - - -
16.12.2017 03:00:00 15,0 10,0 11 6 S - 10
16.12.2017 02:00:00 15,0 11,0 13 7 S - 10
16.12.2017 01:00:00 15,0 9,6 9 5 SSW 1003,4 15
16.12.2017 00:00:00 15,0 8,0 22 12 S - 10
15.12.2017 23:00:00 15,0 8,0 15 8 SSW - 10
15.12.2017 22:00:00 15,0 7,5 21 11 SSW 1004,4 15
15.12.2017 21:00:00 15,0 8,0 22 12 S - 10
15.12.2017 20:00:00 14,0 9,0 21 11 S - 10
15.12.2017 19:00:00 14,8 5,6 9 5 SW 1006,2 20
15.12.2017 18:00:00 15,0 2,0 11 6 WSW - 10
15.12.2017 17:00:00 14,0 1,0 26 14 SW - 10
15.12.2017 16:00:00 13,8 10,0 11 6 SSW 1007,4 18
15.12.2017 15:00:00 14,0 11,0 13 7 WSW - 10
15.12.2017 14:00:00 14,0 12,0 11 6 SW - 10
15.12.2017 13:00:00 14,0 12,1 13 7 SW 1008,6 18
15.12.2017 12:00:00 14,0 12,0 18 10 SSW - 10
15.12.2017 11:00:00 14,0 13,0 15 8 SSW - 10
15.12.2017 10:00:00 13,8 12,5 13 7 SSW 1010,5 20
15.12.2017 09:00:00 14,0 12,0 8 4 WNW - 10
15.12.2017 08:00:00 13,0 11,0 9 5 SW - 10
15.12.2017 07:00:00 13,2 11,3 13 7 SSW 1010,6 18
15.12.2017 06:00:00 13,0 11,0 15 8 S - 10
15.12.2017 05:00:00 13,0 11,0 13 7 WSW - 10
15.12.2017 04:00:00 12,0 10,4 8 4 S 1011,8 15
15.12.2017 03:00:00 12,0 10,0 4 2 SE - 10
15.12.2017 02:00:00 14,0 12,0 9 5 S - 10
15.12.2017 01:00:00 14,0 11,5 8 4 S 1013,2 15
15.12.2017 00:00:00 14,0 11,0 15 8 S - 10
14.12.2017 23:00:00 14,0 11,0 9 5 S - 10
14.12.2017 22:00:00 14,0 10,2 18 10 S 1014,4 15
14.12.2017 21:00:00 14,0 10,0 11 6 SW - 10
14.12.2017 20:00:00 14,0 10,0 9 5 WSW - 10
14.12.2017 19:00:00 14,0 7,8 13 7 SW 1015,0 15
14.12.2017 18:00:00 14,0 5,0 13 7 SW - 10
14.12.2017 17:00:00 14,0 4,0 16 9 SW - 10
14.12.2017 16:00:00 14,0 4,6 15 8 SW 1015,1 30
14.12.2017 15:00:00 14,0 5,0 16 9 SW - 10
14.12.2017 14:00:00 15,0 6,0 16 9 SW - 10
14.12.2017 13:00:00 14,8 6,4 15 8 WSW 1015,4 25
14.12.2017 12:00:00 13,0 12,0 0 0 N - 10
14.12.2017 11:00:00 10,0 9,0 5 3 NNW - 10
14.12.2017 10:00:00 7,6 7,0 4 2 E 1017,2 25
14.12.2017 09:00:00 6,0 6,0 5 3 ENE - 10
14.12.2017 08:00:00 5,0 4,0 8 4 NW - 10
14.12.2017 07:00:00 5,0 4,4 9 5 N 1017,5 25
14.12.2017 06:00:00 5,0 5,0 9 5 NW - 10
14.12.2017 05:00:00 6,0 5,0 0 0 N - 10
14.12.2017 04:00:00 7,0 6,4 8 4 NW 1017,7 25
14.12.2017 03:00:00 - - - - - - -
14.12.2017 02:00:00 8,0 8,0 9 5 W - 10
14.12.2017 01:00:00 8,2 7,4 9 5 WNW 1017,6 25
14.12.2017 00:00:00 8,0 7,0 5 3 WSW - 10
13.12.2017 23:00:00 9,0 8,0 8 4 WNW - 10
13.12.2017 22:00:00 10,0 9,2 8 4 NW 1018,2 20
13.12.2017 21:00:00 11,0 10,0 9 5 WNW - 10
13.12.2017 20:00:00 12,0 11,0 9 5 NW - 10
13.12.2017 19:00:00 13,2 12,4 9 5 NW 1018,0 15
13.12.2017 18:00:00 14,0 13,0 13 7 NNW - 10
13.12.2017 17:00:00 14,0 13,0 5 3 E - 10
13.12.2017 16:00:00 14,8 14,0 8 4 N 1017,4 15
13.12.2017 15:00:00 15,0 14,0 11 6 SSE - 10
13.12.2017 14:00:00 13,0 13,0 9 5 SSE - 10
13.12.2017 13:00:00 12,2 11,9 5 3 NE 1018,3 15
13.12.2017 12:00:00 11,0 11,0 4 2 NE - 10
13.12.2017 11:00:00 11,0 11,0 5 3 NNW - 10
13.12.2017 10:00:00 11,0 10,7 8 4 ENE 1019,9 15
13.12.2017 09:00:00 11,0 11,0 5 3 NE - 10
13.12.2017 08:00:00 11,0 11,0 5 3 ENE - 10
13.12.2017 07:00:00 10,6 10,4 8 4 SSW 1018,6 20
13.12.2017 06:00:00 11,0 10,0 9 5 N - 10
13.12.2017 05:00:00 10,0 10,0 11 6 N - 10
13.12.2017 04:00:00 12,0 11,9 11 6 NNW 1018,4 18
13.12.2017 03:00:00 12,0 12,0 13 7 ENE - 10
13.12.2017 02:00:00 10,0 10,0 11 6 NNE - 10
13.12.2017 01:00:00 10,2 9,6 9 5 NNE 1018,4 18
13.12.2017 00:00:00 11,0 10,0 8 4 N - 10
12.12.2017 23:00:00 12,0 11,0 5 3 NE - 10
12.12.2017 22:00:00 12,0 11,2 9 5 E 1018,5 18
12.12.2017 21:00:00 11,0 10,0 4 2 NW - 10
12.12.2017 20:00:00 12,0 11,0 0 0 N - 10
12.12.2017 19:00:00 13,4 11,6 8 4 N 1018,0 25
12.12.2017 18:00:00 15,0 13,0 8 4 WSW - 10
12.12.2017 17:00:00 16,0 14,0 18 10 SSE - 10
12.12.2017 16:00:00 17,0 14,7 18 10 SE 1017,2 25
12.12.2017 15:00:00 17,0 13,0 16 9 SE - 10
12.12.2017 14:00:00 17,0 13,0 18 10 SE - 10
12.12.2017 13:00:00 17,0 12,1 21 11 S 1016,8 25
12.12.2017 12:00:00 17,0 12,0 8 4 SSE - 10
12.12.2017 11:00:00 16,0 14,0 9 5 SSE - 10
12.12.2017 10:00:00 15,2 14,9 9 5 SE 1016,8 18
12.12.2017 09:00:00 13,0 12,0 11 6 SE - 10
12.12.2017 08:00:00 10,0 10,0 8 4 SE - 10
12.12.2017 07:00:00 10,0 9,4 9 5 SSE 1014,6 12
12.12.2017 06:00:00 - - - - - - -
12.12.2017 05:00:00 - - - - - - -
12.12.2017 04:00:00 14,0 13,0 8 4 SSE 1013,4 10
12.12.2017 03:00:00 - - - - - - -
12.12.2017 02:00:00 - - - - - - -
12.12.2017 01:00:00 - - - - - - -
12.12.2017 00:00:00 16,0 15,0 29 16 SSE - 10
11.12.2017 23:00:00 16,0 15,0 26 14 S - 10
11.12.2017 22:00:00 16,0 15,4 29 16 SSE 1014,1 15
11.12.2017 21:00:00 16,0 15,0 29 16 SSE - 10
11.12.2017 20:00:00 16,0 15,0 31 17 SSE - 10
11.12.2017 19:00:00 15,6 14,6 29 16 SSE 1014,4 14
11.12.2017 18:00:00 15,0 14,0 28 15 SSE - 10
11.12.2017 17:00:00 16,0 14,0 28 15 SSE - 10
11.12.2017 16:00:00 16,0 13,7 29 16 SSE 1014,5 14
11.12.2017 15:00:00 17,0 12,0 26 14 SSE - 10
11.12.2017 14:00:00 16,0 10,0 22 12 SSE - 10
11.12.2017 13:00:00 15,8 9,0 26 14 SSE 1015,5 18
11.12.2017 12:00:00 16,0 9,0 24 13 SSE - 10
11.12.2017 11:00:00 10,0 4,0 26 14 SSE - 10
11.12.2017 10:00:00 13,0 7,2 26 14 S 1016,7 15
11.12.2017 09:00:00 12,0 6,0 26 14 S - 10
11.12.2017 08:00:00 12,0 7,0 28 15 S - 10
11.12.2017 07:00:00 11,8 7,1 15 8 SSW 1016,4 18
11.12.2017 06:00:00 12,0 8,0 26 14 S - 10
11.12.2017 05:00:00 11,0 7,0 24 13 S - 10
11.12.2017 04:00:00 10,2 7,4 22 12 S 1016,8 15
11.12.2017 03:00:00 5,0 5,0 11 6 WSW - 10
11.12.2017 02:00:00 5,0 5,0 8 4 W - 10
11.12.2017 01:00:00 5,0 4,6 8 4 ESE 1017,4 15
11.12.2017 00:00:00 6,0 5,0 8 4 WSW - 10
10.12.2017 23:00:00 6,0 5,0 8 4 SE - 10
10.12.2017 22:00:00 6,8 4,5 8 4 W 1018,0 20
10.12.2017 21:00:00 8,0 5,0 8 4 WNW - 10
10.12.2017 20:00:00 9,0 3,0 9 5 WSW - 10
10.12.2017 19:00:00 10,2 3,7 13 7 SW 1017,8 20
10.12.2017 18:00:00 11,0 5,0 18 10 SSW - 10
10.12.2017 17:00:00 11,0 5,0 22 12 SSE - 10
10.12.2017 16:00:00 10,6 2,7 15 8 S 1018,7 20
10.12.2017 15:00:00 11,0 0,0 11 6 S - 10
10.12.2017 14:00:00 11,0 -1,0 15 8 S - 10
10.12.2017 13:00:00 10,0 -3,3 9 5 SSE 1020,1 20
10.12.2017 12:00:00 10,0 -3,0 5 3 S - 10
10.12.2017 11:00:00 8,0 1,0 5 3 W - 10
10.12.2017 10:00:00 5,0 0,4 11 6 NW 1020,3 20
10.12.2017 09:00:00 3,0 2,0 11 6 WNW - 10
10.12.2017 08:00:00 3,0 2,0 11 6 NW - 10
10.12.2017 07:00:00 4,0 2,2 11 6 W 1019,3 20
10.12.2017 06:00:00 5,0 3,0 13 7 W - 10
10.12.2017 05:00:00 5,0 2,0 9 5 W - 10
10.12.2017 04:00:00 5,4 2,0 9 5 WNW 1017,4 20

tt = Température de l'air
td = dewpoint
ff = Vitesse du vent
dd = Direction du vent
ppp = reduced air pressure
vv = visibility

stations d'obs. à proximité